Date String (YYYY-MM-DD hh:mm:ss) UTC,Instrument flags,Ambient pressure (hPa),Sample flow (lpm),Bypass flow (lpm),Sample temperature (°C),Ambient temperature (°C),ASC tube jacket temperature (°C),LED temperature (°C),Box temperature (°C),Sample RH (%),Span deviation,Mass concentration (μg/m³),Mass concentration (μg/m³),Mass concentration (μg/m³)
DateTimeUTC,F1_M11,P_M11,Q1_M11,Q2_M11,T1_M11,T2_M11,T3_M11,T4_M11,T5_M11,U1_M11,ZSPAN_M11,X0_M11,X2_M11,X1_M11
2023-04-13 07:00:00,,0818.9,5.00,0.00,30.3,28.6,00.0,38.6,31.7,10.9,0000.0,0010.67,0003.57,0002.18
2023-04-13 07:01:00,,0818.9,5.01,0.00,30.3,28.6,00.0,38.7,31.7,10.8,0000.0,0010.50,0003.58,0002.18
2023-04-13 07:02:00,,0819.0,5.01,0.00,30.2,28.6,00.0,38.6,31.7,10.9,0000.0,0010.24,0003.51,0002.17
2023-04-13 07:03:00,,0818.9,5.00,0.00,30.2,28.6,00.0,38.6,31.7,11.2,0000.0,0010.56,0003.52,0002.17
2023-04-13 07:04:00,,0818.9,4.99,0.00,30.2,28.5,00.0,38.6,31.7,11.2,0000.0,0011.10,0003.52,0002.17
2023-04-13 07:05:00,,0818.9,5.00,0.00,30.2,28.6,00.0,38.6,31.8,11.2,0000.0,0011.76,0003.48,0002.18
2023-04-13 07:06:00,,0818.9,5.00,0.00,30.2,28.6,00.0,38.6,31.8,11.1,0000.0,0012.10,0003.48,0002.18
2023-04-13 07:07:00,,0819.0,5.01,0.00,30.2,28.6,00.0,38.6,31.8,10.5,0000.0,0011.59,0003.47,0002.20
2023-04-13 07:08:00,,0819.0,5.01,0.00,30.2,28.6,00.0,38.6,31.8,10.3,0000.0,0011.96,0003.44,0002.20
2023-04-13 07:09:00,,0819.0,5.00,0.00,30.2,28.6,00.0,38.6,31.7,10.4,0000.0,0012.60,0003.41,0002.19
2023-04-13 07:10:00,,0819.0,5.00,0.00,30.2,28.6,00.0,38.6,31.7,10.5,0000.0,0012.48,0003.43,0002.20
2023-04-13 07:11:00,,0819.0,4.99,0.00,30.2,28.6,00.0,38.6,31.7,10.7,0000.0,0012.84,0003.47,0002.21
2023-04-13 07:12:00,,0819.0,5.00,0.00,30.2,28.6,00.0,38.6,31.7,10.7,0000.0,0012.82,0003.45,0002.22
2023-04-13 07:13:00,,0819.0,4.99,0.00,30.2,28.5,00.0,38.6,31.7,10.7,0000.0,0012.33,0003.46,0002.23
2023-04-13 07:14:00,,0818.9,5.00,0.00,30.2,28.5,00.0,38.6,31.7,10.7,0000.0,0011.83,0003.45,0002.23
2023-04-13 07:15:00,,0818.9,4.99,0.00,30.2,28.5,00.0,38.6,31.7,10.8,0000.0,0010.98,0003.42,0002.24
2023-04-13 07:16:00,,0818.9,4.99,0.00,30.2,28.5,00.0,38.6,31.7,10.8,0000.0,0010.83,0003.49,0002.26
2023-04-13 07:17:00,,0819.3,5.00,0.00,30.2,28.5,00.0,38.6,31.7,10.8,0000.0,0010.94,0003.55,0002.27
2023-04-13 07:18:00,,0819.1,5.00,0.00,30.2,28.5,00.0,38.6,31.7,10.8,0000.0,0011.04,0003.58,0002.28
2023-04-13 07:19:00,,0819.2,5.01,0.00,30.1,28.5,00.0,38.6,31.6,10.9,0000.0,0010.75,0003.62,0002.28
2023-04-13 07:20:00,,0819.3,5.00,0.00,30.1,28.5,00.0,38.6,31.6,10.8,0000.0,0010.28,0003.63,0002.30
2023-04-13 07:21:00,,0819.3,5.00,0.00,30.1,28.4,00.0,38.6,31.6,10.8,0000.0,0010.08,0003.69,0002.32
2023-04-13 07:22:00,,0819.4,4.99,0.00,30.1,28.4,00.0,38.6,31.6,10.6,0000.0,0009.78,0003.68,0002.31
2023-04-13 07:23:00,,0819.4,5.00,0.00,30.1,28.4,00.0,38.6,31.6,10.8,0000.0,0010.08,0003.69,0002.31
2023-04-13 07:24:00,,0819.2,5.00,0.00,30.1,28.4,00.0,38.6,31.6,10.6,0000.0,0011.17,0003.69,0002.31
2023-04-13 07:25:00,,0818.8,5.01,0.00,30.1,28.4,00.0,38.5,31.6,10.6,0000.0,0011.28,0003.73,0002.31
2023-04-13 07:26:00,,0818.9,4.99,0.00,30.1,28.4,00.0,38.5,31.6,10.8,0000.0,0011.63,0003.76,0002.32
2023-04-13 07:27:00,,0818.9,5.00,0.00,30.1,28.4,00.0,38.5,31.6,10.7,0000.0,0011.76,0003.75,0002.30
2023-04-13 07:28:00,,0818.9,4.99,0.00,30.1,28.4,00.0,38.5,31.6,10.8,0000.0,0011.35,0003.72,0002.28
2023-04-13 07:29:00,,0818.8,5.00,0.00,30.1,28.4,00.0,38.5,31.6,10.8,0000.0,0011.13,0003.69,0002.26
2023-04-13 07:30:00,,0818.8,4.99,0.00,30.1,28.4,00.0,38.5,31.6,10.9,0000.0,0011.13,0003.65,0002.25
2023-04-13 07:31:00,,0818.8,5.01,0.00,30.1,28.4,00.0,38.5,31.6,10.9,0000.0,0011.19,0003.66,0002.24
2023-04-13 07:32:00,,0818.8,4.99,0.00,30.1,28.4,00.0,38.5,31.6,10.8,0000.0,0011.23,0003.67,0002.22
2023-04-13 07:33:00,,0818.7,5.01,0.00,30.1,28.4,00.0,38.5,31.6,10.9,0000.0,0010.87,0003.66,0002.21
2023-04-13 07:34:00,,0818.8,5.01,0.00,30.1,28.4,00.0,38.5,31.6,10.9,0000.0,0010.99,0003.71,0002.21
2023-04-13 07:35:00,,0818.8,5.00,0.00,30.1,28.4,00.0,38.5,31.5,10.9,0000.0,0010.09,0003.71,0002.22
2023-04-13 07:36:00,,0818.8,5.00,0.00,30.1,28.4,00.0,38.5,31.5,10.9,0000.0,0009.43,0003.75,0002.22
2023-04-13 07:37:00,,0818.8,4.99,0.00,30.1,28.4,00.0,38.5,31.5,10.9,0000.0,0009.52,0003.75,0002.23
2023-04-13 07:38:00,,0818.7,5.00,0.00,30.1,28.3,00.0,38.5,31.5,11.0,0000.0,0009.47,0003.75,0002.24
2023-04-13 07:39:00,,0818.7,4.99,0.00,30.0,28.3,00.0,38.5,31.5,11.0,0000.0,0009.51,0003.78,0002.25
2023-04-13 07:40:00,,0818.8,4.98,0.00,30.0,28.3,00.0,38.5,31.5,11.1,0000.0,0009.80,0003.75,0002.26
2023-04-13 07:41:00,,0818.8,5.00,0.00,30.0,28.3,00.0,38.5,31.5,11.0,0000.0,0009.91,0003.80,0002.27
2023-04-13 07:42:00,,0818.7,5.00,0.00,30.0,28.3,00.0,38.5,31.5,10.8,0000.0,0010.04,0003.84,0002.28
2023-04-13 07:43:00,,0818.7,5.01,0.00,30.0,28.3,00.0,38.5,31.5,10.8,0000.0,0010.17,0003.81,0002.28
2023-04-13 07:44:00,,0818.8,5.00,0.00,30.0,28.3,00.0,38.5,31.5,10.9,0000.0,0010.44,0003.82,0002.30
2023-04-13 07:45:00,,0818.7,5.01,0.00,30.0,28.3,00.0,38.4,31.5,10.9,0000.0,0010.29,0003.78,0002.31
2023-04-13 07:46:00,,0818.7,5.00,0.00,30.0,28.3,00.0,38.4,31.5,10.9,0000.0,0010.40,0003.80,0002.31
2023-04-13 07:47:00,,0818.7,5.00,0.00,30.0,28.3,00.0,38.4,31.5,10.9,0000.0,0010.35,0003.80,0002.31
2023-04-13 07:48:00,,0818.7,5.00,0.00,30.0,28.3,00.0,38.4,31.4,10.8,0000.0,0010.23,0003.82,0002.31
2023-04-13 07:49:00,,0818.7,5.00,0.00,30.0,28.3,00.0,38.4,31.4,10.9,0000.0,0010.13,0003.85,0002.31
2023-04-13 07:50:00,,0818.7,5.00,0.00,29.9,28.3,00.0,38.4,31.5,10.9,0000.0,0009.81,0003.82,0002.31
2023-04-13 07:51:00,,0818.7,4.99,0.00,30.0,28.3,00.0,38.4,31.4,10.9,0000.0,0009.52,0003.80,0002.32
2023-04-13 07:52:00,,0818.6,4.99,0.00,30.0,28.3,00.0,38.4,31.4,10.9,0000.0,0009.46,0003.78,0002.32
2023-04-13 07:53:00,,0818.6,5.01,0.00,30.0,28.3,00.0,38.4,31.4,10.9,0000.0,0009.46,0003.75,0002.31
2023-04-13 07:54:00,,0818.6,5.00,0.00,29.9,28.2,00.0,38.4,31.4,10.8,0000.0,0009.64,0003.79,0002.31
2023-04-13 07:55:00,,0818.6,5.00,0.00,29.9,28.2,00.0,38.4,31.4,10.9,0000.0,0009.35,0003.76,0002.30
2023-04-13 07:56:00,,0818.6,5.00,0.00,29.9,28.2,00.0,38.4,31.4,10.9,0000.0,0009.23,0003.74,0002.29
2023-04-13 07:57:00,,0818.6,4.99,0.00,29.9,28.2,00.0,38.4,31.4,10.9,0000.0,0009.07,0003.73,0002.29
2023-04-13 07:58:00,,0818.6,5.01,0.00,29.9,28.2,00.0,38.4,31.4,11.0,0000.0,0009.22,0003.71,0002.28
2023-04-13 07:59:00,,0818.6,5.01,0.00,29.9,28.2,00.0,38.4,31.4,11.0,0000.0,0009.49,0003.69,0002.29
